TimeCDT,TemperatureF,Dew PointF,Humidity,Sea Level PressureIn,VisibilityMPH,Wind Direction,Wind SpeedMPH,Gust SpeedMPH,PrecipitationIn,Events,Conditions,WindDirDegrees,DateUTC
12:15 AM,56.7,43.0,60,29.95,10.0,SE,10.4,-,N/A,,Clear,140,2013-06-03 05:15:00
12:35 AM,55.8,42.8,62,29.95,10.0,SE,9.2,-,N/A,,Clear,140,2013-06-03 05:35:00
12:55 AM,55.4,42.8,63,29.95,10.0,SE,9.2,-,N/A,,Clear,140,2013-06-03 05:55:00
1:15 AM,55.4,43.0,63,29.94,10.0,SE,11.5,-,N/A,,Clear,140,2013-06-03 06:15:00
1:35 AM,55.4,43.2,63,29.93,10.0,SSE,11.5,-,N/A,,Clear,150,2013-06-03 06:35:00
1:55 AM,55.6,43.0,63,29.93,10.0,SSE,10.4,-,N/A,,Clear,150,2013-06-03 06:55:00
2:15 AM,55.4,42.8,63,29.92,10.0,SSE,10.4,-,N/A,,Clear,150,2013-06-03 07:15:00
2:35 AM,54.9,42.8,64,29.92,10.0,SE,9.2,-,N/A,,Clear,140,2013-06-03 07:35:00
2:55 AM,55.0,42.4,63,29.91,10.0,SE,10.4,-,N/A,,Clear,140,2013-06-03 07:55:00
3:15 AM,55.4,42.3,61,29.91,10.0,SE,10.4,-,N/A,,Clear,140,2013-06-03 08:15:00
3:35 AM,55.0,42.3,62,29.90,10.0,SE,9.2,-,N/A,,Clear,140,2013-06-03 08:35:00
3:55 AM,54.5,42.4,64,29.90,10.0,SE,10.4,-,N/A,,Clear,140,2013-06-03 08:55:00
4:15 AM,54.0,42.8,66,29.89,10.0,SE,11.5,17.3,N/A,,Clear,140,2013-06-03 09:15:00
4:35 AM,53.2,42.8,68,29.87,10.0,SE,12.7,-,N/A,,Clear,140,2013-06-03 09:35:00
4:55 AM,52.9,42.8,69,29.87,10.0,SSE,15.0,-,N/A,,Clear,150,2013-06-03 09:55:00
5:15 AM,52.7,43.0,70,29.86,10.0,SSE,17.3,-,N/A,,Clear,150,2013-06-03 10:15:00
5:35 AM,52.7,43.2,70,29.86,10.0,SSE,18.4,-,N/A,,Clear,150,2013-06-03 10:35:00
5:55 AM,52.9,43.2,70,29.85,10.0,SSE,17.3,23.0,N/A,,Clear,150,2013-06-03 10:55:00
6:15 AM,52.9,43.2,70,29.85,10.0,SSE,17.3,23.0,N/A,,Clear,150,2013-06-03 11:15:00
6:35 AM,52.9,43.2,70,29.85,10.0,SSE,18.4,24.2,N/A,,Clear,150,2013-06-03 11:35:00
6:55 AM,53.6,43.3,68,29.84,10.0,SSE,19.6,25.3,N/A,,Clear,150,2013-06-03 11:55:00
7:15 AM,54.5,43.7,67,29.84,10.0,SSE,17.3,21.9,N/A,,Clear,150,2013-06-03 12:15:00
7:35 AM,55.9,43.9,64,29.84,10.0,SSE,18.4,24.2,N/A,,Clear,150,2013-06-03 12:35:00
7:55 AM,57.6,44.1,61,29.84,10.0,SSE,20.7,25.3,N/A,,Clear,160,2013-06-03 12:55:00
8:15 AM,59.5,43.5,55,29.83,10.0,SSE,26.5,33.4,N/A,,Clear,160,2013-06-03 13:15:00
8:35 AM,60.3,43.7,54,29.82,10.0,SSE,27.6,34.5,N/A,,Clear,160,2013-06-03 13:35:00
8:55 AM,61.0,44.2,54,29.81,10.0,SSE,25.3,35.7,N/A,,Clear,160,2013-06-03 13:55:00
9:15 AM,62.8,44.8,52,29.80,10.0,SSE,26.5,33.4,N/A,,Clear,160,2013-06-03 14:15:00
9:35 AM,63.7,45.0,51,29.79,10.0,SSE,28.8,35.7,N/A,,Clear,160,2013-06-03 14:35:00
9:55 AM,65.7,45.5,48,29.79,10.0,South,26.5,35.7,N/A,,Clear,170,2013-06-03 14:55:00
10:15 AM,68.0,45.7,45,29.78,10.0,South,29.9,38.0,N/A,,Clear,170,2013-06-03 15:15:00
10:35 AM,68.0,46.0,45,29.77,10.0,South,21.9,36.8,N/A,,Clear,170,2013-06-03 15:35:00
10:55 AM,68.7,46.6,45,29.76,10.0,South,26.5,35.7,N/A,,Clear,170,2013-06-03 15:55:00
11:15 AM,69.1,47.1,45,29.76,10.0,South,25.3,34.5,N/A,,Clear,170,2013-06-03 16:15:00
11:35 AM,70.2,47.3,44,29.74,10.0,South,28.8,36.8,N/A,,Clear,170,2013-06-03 16:35:00
11:55 AM,70.9,47.5,43,29.74,10.0,South,24.2,36.8,N/A,,Clear,180,2013-06-03 16:55:00
12:15 PM,72.0,48.2,43,29.73,10.0,South,28.8,36.8,N/A,,Clear,170,2013-06-03 17:15:00
12:35 PM,73.0,48.7,42,29.75,10.0,South,20.7,33.4,N/A,,Clear,190,2013-06-03 17:35:00
12:55 PM,74.1,49.5,42,29.76,10.0,South,21.9,27.6,N/A,,Clear,190,2013-06-03 17:55:00
1:15 PM,74.5,50.0,42,29.76,10.0,South,18.4,32.2,N/A,,Clear,190,2013-06-03 18:15:00
1:35 PM,75.6,49.6,40,29.73,10.0,South,25.3,31.1,N/A,,Clear,190,2013-06-03 18:35:00
1:55 PM,76.5,50.2,40,29.74,10.0,South,19.6,29.9,N/A,,Clear,180,2013-06-03 18:55:00
2:15 PM,-9999,-9999,N/A,-9999,-9999.0,North,-9999.0,-,N/A,,Unknown,0,2013-06-03 19:15:00
2:35 PM,-9999,-9999,N/A,-9999,-9999.0,North,-9999.0,-,N/A,,Unknown,0,2013-06-03 19:35:00
2:55 PM,78.8,50.4,37,29.72,10.0,South,19.6,26.5,0.03,,Clear,170,2013-06-03 19:55:00
3:15 PM,79.7,50.7,36,29.72,10.0,SSW,21.9,28.8,N/A,,Clear,200,2013-06-03 20:15:00
3:35 PM,80.4,50.7,35,29.72,10.0,South,21.9,26.5,N/A,,Clear,170,2013-06-03 20:35:00
3:55 PM,81.0,50.9,35,29.71,10.0,South,18.4,27.6,N/A,,Clear,180,2013-06-03 20:55:00
4:15 PM,82.0,50.4,33,29.71,10.0,South,17.3,23.0,N/A,,Clear,180,2013-06-03 21:15:00
4:35 PM,82.2,50.2,33,29.71,10.0,South,17.3,23.0,N/A,,Clear,170,2013-06-03 21:35:00
4:55 PM,82.6,50.0,32,29.70,10.0,South,16.1,25.3,N/A,,Clear,170,2013-06-03 21:55:00
5:15 PM,82.8,50.0,32,29.71,10.0,South,17.3,23.0,N/A,,Clear,170,2013-06-03 22:15:00
5:35 PM,83.1,50.4,32,29.69,10.0,SSE,17.3,-,N/A,,Clear,160,2013-06-03 22:35:00
5:55 PM,83.5,50.0,31,29.69,10.0,South,15.0,-,N/A,,Clear,180,2013-06-03 22:55:00
6:15 PM,83.5,50.2,31,29.69,10.0,South,11.5,-,N/A,,Clear,170,2013-06-03 23:15:00
6:35 PM,83.3,49.6,31,29.71,10.0,South,11.5,17.3,N/A,,Clear,170,2013-06-03 23:35:00
6:55 PM,83.1,48.9,30,29.71,10.0,South,10.4,-,N/A,,Clear,170,2013-06-03 23:55:00
7:15 PM,81.1,50.9,35,29.72,10.0,South,9.2,-,N/A,,Clear,170,2013-06-04 00:15:00
7:35 PM,79.7,52.0,38,29.73,10.0,SSE,9.2,-,N/A,,Scattered Clouds,160,2013-06-04 00:35:00
7:55 PM,79.7,53.8,41,29.72,10.0,SE,13.8,-,N/A,,Scattered Clouds,140,2013-06-04 00:55:00
8:15 PM,78.3,54.7,44,29.74,10.0,SSE,8.1,-,N/A,,Scattered Clouds,150,2013-06-04 01:15:00
8:35 PM,77.5,55.4,46,29.72,10.0,SE,9.2,-,N/A,,Clear,140,2013-06-04 01:35:00
8:55 PM,76.1,55.8,49,29.72,10.0,SE,9.2,-,N/A,,Clear,130,2013-06-04 01:55:00
9:15 PM,75.4,56.3,51,29.72,10.0,SE,9.2,-,N/A,,Clear,140,2013-06-04 02:15:00
9:35 PM,75.0,56.3,52,29.75,10.0,SSE,10.4,-,N/A,Rain-Thunderstorm,Light Thunderstorms and Rain,150,2013-06-04 02:35:00
9:55 PM,71.2,59.0,65,29.78,10.0,NNW,6.9,-,N/A,Rain-Thunderstorm,Light Thunderstorms and Rain,340,2013-06-04 02:55:00
10:15 PM,68.9,60.6,75,29.82,10.0,NNW,5.8,-,0.01,Rain-Thunderstorm,Light Thunderstorms and Rain,340,2013-06-04 03:15:00
10:35 PM,68.5,59.0,72,29.84,3.0,Calm,Calm,-,0.21,Rain-Thunderstorm,Rain,0,2013-06-04 03:35:00
10:55 PM,68.7,59.0,71,29.82,10.0,SW,4.6,-,0.21,Thunderstorm,Thunderstorm,230,2013-06-04 03:55:00
11:15 PM,66.2,60.8,83,29.82,10.0,North,6.9,-,N/A,,Clear,360,2013-06-04 04:15:00
11:35 PM,65.7,60.3,83,29.82,10.0,North,9.2,-,N/A,,Clear,10,2013-06-04 04:35:00
11:55 PM,64.2,55.6,73,29.82,10.0,North,12.7,18.4,N/A,,Clear,360,2013-06-04 04:55:00